Hourly Data Report for October 15, 2015

All times are specified in Local Standard Time (LST). Add 1 hour to adjust for Daylight Saving Time where and when it is observed.

WINNIPEG A CS
MANITOBA

49°55'00.000" N
97°14'58.000" W
238.70 m
502S001
71849
XWG

Download Data

Hourly Data (October 2015)
Hourly Data Report for October 15, 2015
Temp Definition
°C
Dew Point Temp Definition
°C
Rel Hum Definition
%
Wind Dir Definition
10's deg

Wind Spd Definition
km/h
Visibility Definition
km
Stn Press Definition
kPa
Hmdx Definition


Wind Chill Definition


Weather Definition


TIME
00:00 4.6 1.3 80 31 18   98.26     LegendNANA
01:00 2.4 0.6 88 29 15   98.32     LegendNANA
02:00 2.8 1.1 89 29 18   98.40     LegendNANA
03:00 3.4 2.3 93 28 16   98.46     LegendNANA
04:00 3.6 2.3 92 29 18   98.52     LegendNANA
05:00 4.0 2.4 90 29 20   98.60     LegendNANA
06:00 3.0 1.5 90 29 19   98.70     LegendNANA
07:00 3.3 1.6 89 29 18   98.80     LegendNANA
08:00 6.0 3.7 85 30 21   98.90     LegendNANA
09:00 7.4 3.0 74 33 34   99.07     LegendNANA
10:00 6.9 1.6 69 34 43   99.22     LegendNANA
11:00 6.7 -1.4 57 34 46   99.35     LegendNANA
12:00 6.8 -6.4 38 33 47   99.43     LegendNANA
13:00 6.9 -3.6 47 33 39   99.50     LegendNANA
14:00 5.9 -2.9 53 33 38   99.58     LegendNANA
15:00 6.0 -3.0 53 33 37   99.65     LegendNANA
16:00 3.7 -1.0 72 1 26   99.75     LegendNANA
17:00 3.8 -1.2 70 1 21   99.81     LegendNANA
18:00 3.2 -3.8 60 33 20   99.88     LegendNANA
19:00 2.8 -3.3 64 32 27   99.96     LegendNANA
20:00 0.5 -3.2 76 36 12   99.99     LegendNANA
21:00 -1.1 -4.0 81 36 8   100.00   -4 LegendNANA
22:00 -4.6 -7.2 82 28 11   100.04   -9 LegendNANA
23:00 -5.0 -6.3 91 29 15   100.04   -11 LegendNANA

Notes on Data Quality.

Legend

  • E = Estimated
  • M = Missing
  • NA = Not Available
  • ‡ = Partner data that is not subject to review by the National Climate Archives
Date modified: